| time (UTC) | temp F | wind direction | speed MPH | gust MPH | rain 1hr in | rain 24hr in | rain mn in | humidity % | barometer mb |
| 20260509124039 | 76 | 0 | 0.0 | 0.0 | 0.00 | 0.01 | 0.00 | 86 | 1011.2 |
| 20260509123539 | 75 | 0 | 0.0 | 0.0 | 0.00 | 0.01 | 0.00 | 87 | 1011.2 |
| 20260509123056 | 74 | 0 | 0.0 | 0.0 | 0.00 | 0.01 | 0.00 | 90 | 1011.1 |
| 20260509122538 | 73 | 0 | 0.0 | 0.0 | 0.00 | 0.01 | 0.00 | 90 | 1011.2 |
| 20260509122039 | 72 | 0 | 0.0 | 0.0 | 0.00 | 0.01 | 0.00 | 92 | 1011.0 |
| 20260509121559 | 71 | 0 | 0.0 | 0.0 | 0.00 | 0.01 | 0.00 | 92 | 1011.0 |
| 20260509121039 | 70 | 0 | 0.0 | 0.0 | 0.00 | 0.01 | 0.00 | 93 | 1011.0 |
| 20260509120541 | 70 | 0 | 0.0 | 0.0 | 0.00 | 0.01 | 0.00 | 93 | 1011.0 |
| 20260509120057 | 69 | 0 | 0.0 | 0.0 | 0.00 | 0.01 | 0.00 | 93 | 1011.1 |
| 20260509115538 | 69 | 0 | 0.0 | 1.0 | 0.00 | 0.01 | 0.00 | 93 | 1011.1 |
| 20260509115038 | 69 | 0 | 0.0 | 1.0 | 0.00 | 0.01 | 0.00 | 93 | 1011.1 |
| 20260509114553 | 69 | 0 | 0.0 | 0.0 | 0.00 | 0.01 | 0.00 | 93 | 1010.9 |
| 20260509114039 | 69 | 0 | 0.0 | 1.0 | 0.00 | 0.01 | 0.00 | 93 | 1010.8 |
| 20260509113541 | 70 | 0 | 0.0 | 1.0 | 0.00 | 0.01 | 0.00 | 93 | 1010.6 |
| 20260509113056 | 70 | 344 | 0.0 | 1.0 | 0.00 | 0.01 | 0.00 | 93 | 1010.7 |
| 20260509112541 | 70 | 0 | 0.0 | 0.0 | 0.00 | 0.01 | 0.00 | 93 | 1010.9 |
| 20260509112039 | 70 | 0 | 0.0 | 0.0 | 0.00 | 0.01 | 0.00 | 93 | 1010.9 |
| 20260509111559 | 70 | 0 | 0.0 | 0.0 | 0.00 | 0.01 | 0.00 | 93 | 1010.8 |
| 20260509111039 | 70 | 0 | 0.0 | 0.0 | 0.00 | 0.01 | 0.00 | 93 | 1010.8 |
| 20260509110544 | 70 | 0 | 0.0 | 1.0 | 0.00 | 0.01 | 0.00 | 94 | 1010.7 |
| 20260509110050 | 70 | 0 | 0.0 | 1.0 | 0.00 | 0.01 | 0.00 | 94 | 1010.6 |
| 20260509105542 | 70 | 0 | 0.0 | 1.0 | 0.00 | 0.01 | 0.00 | 94 | 1010.7 |
| 20260509105036 | 70 | 0 | 0.0 | 2.0 | 0.00 | 0.01 | 0.00 | 94 | 1010.6 |
| 20260509104549 | 70 | 0 | 0.0 | 2.0 | 0.00 | 0.01 | 0.00 | 94 | 1010.6 |
| 20260509104038 | 70 | 0 | 0.0 | 2.0 | 0.00 | 0.01 | 0.00 | 95 | 1010.6 |
| 20260509103538 | 70 | 299 | 0.0 | 1.0 | 0.00 | 0.01 | 0.00 | 95 | 1010.6 |
| 20260509103049 | 70 | 0 | 0.0 | 1.0 | 0.00 | 0.01 | 0.00 | 95 | 1010.5 |
| 20260509102539 | 69 | 308 | 0.0 | 1.0 | 0.00 | 0.01 | 0.00 | 95 | 1010.2 |
| 20260509102039 | 69 | 328 | 0.0 | 1.0 | 0.00 | 0.01 | 0.00 | 94 | 1009.4 |
| 20260509101550 | 69 | 0 | 0.0 | 1.0 | 0.00 | 0.01 | 0.00 | 94 | 1009.1 |
| 20260509101038 | 69 | 0 | 0.0 | 1.0 | 0.00 | 0.01 | 0.00 | 94 | 1009.0 |
| 20260509100538 | 69 | 0 | 0.0 | 1.0 | 0.00 | 0.01 | 0.00 | 94 | 1008.8 |
| 20260509100048 | 69 | 0 | 0.0 | 2.0 | 0.00 | 0.01 | 0.00 | 94 | 1008.8 |
| 20260509095539 | 69 | 173 | 0.0 | 2.0 | 0.00 | 0.01 | 0.00 | 94 | 1008.7 |
| 20260509095040 | 69 | 184 | 0.0 | 3.0 | 0.00 | 0.01 | 0.00 | 94 | 1008.6 |
| 20260509094550 | 69 | 216 | 0.0 | 3.0 | 0.00 | 0.01 | 0.00 | 94 | 1008.7 |
| 20260509094039 | 69 | 205 | 1.0 | 3.0 | 0.00 | 0.01 | 0.00 | 94 | 1008.3 |
| 20260509093538 | 69 | 193 | 0.0 | 2.0 | 0.00 | 0.01 | 0.00 | 94 | 1008.8 |
| 20260509093051 | 69 | 0 | 0.0 | 2.0 | 0.00 | 0.01 | 0.00 | 94 | 1009.1 |
| 20260509092539 | 68 | 0 | 0.0 | 2.0 | 0.00 | 0.01 | 0.00 | 94 | 1008.1 |
| 20260509092039 | 68 | 157 | 1.0 | 2.0 | 0.00 | 0.01 | 0.00 | 94 | 1008.0 |
| 20260509091548 | 68 | 158 | 0.0 | 2.0 | 0.00 | 0.01 | 0.00 | 94 | 1008.0 |
| 20260509091039 | 68 | 197 | 0.0 | 2.0 | 0.00 | 0.01 | 0.00 | 94 | 1008.5 |
| 20260509090540 | 68 | 193 | 0.0 | 1.0 | 0.00 | 0.01 | 0.00 | 94 | 1008.5 |
| 20260509090105 | 68 | 213 | 0.0 | 1.0 | 0.00 | 0.01 | 0.00 | 94 | 1008.5 |
| 20260509085539 | 68 | 169 | 0.0 | 1.0 | 0.00 | 0.01 | 0.00 | 94 | 1008.8 |
| 20260509085038 | 68 | 166 | 0.0 | 1.0 | 0.00 | 0.01 | 0.00 | 94 | 1009.2 |
| 20260509084558 | 68 | 166 | 0.0 | 1.0 | 0.00 | 0.01 | 0.00 | 93 | 1009.6 |
| 20260509084039 | 68 | 0 | 0.0 | 0.0 | 0.00 | 0.01 | 0.00 | 93 | 1009.9 |
| 20260509083538 | 68 | 0 | 0.0 | 0.0 | 0.00 | 0.01 | 0.00 | 93 | 1010.0 |
| 20260509083057 | 69 | 158 | 0.0 | 0.0 | 0.00 | 0.01 | 0.00 | 93 | 1010.1 |
| 20260509082539 | 69 | 0 | 0.0 | 0.0 | 0.00 | 0.01 | 0.00 | 93 | 1010.3 |
| 20260509082043 | 69 | 0 | 0.0 | 0.0 | 0.00 | 0.01 | 0.00 | 93 | 1010.5 |
| 20260509081554 | 69 | 0 | 0.0 | 0.0 | 0.00 | 0.01 | 0.00 | 93 | 1010.6 |
| 20260509081039 | 69 | 157 | 0.0 | 1.0 | 0.00 | 0.01 | 0.00 | 93 | 1010.8 |
| 20260509080538 | 69 | 157 | 0.0 | 1.0 | 0.00 | 0.01 | 0.00 | 93 | 1011.2 |
| 20260509080048 | 69 | 143 | 0.0 | 1.0 | 0.00 | 0.01 | 0.00 | 93 | 1011.5 |
| 20260509075539 | 69 | 0 | 0.0 | 0.0 | 0.00 | 0.01 | 0.00 | 93 | 1011.8 |
| 20260509075039 | 69 | 0 | 0.0 | 0.0 | 0.00 | 0.01 | 0.00 | 93 | 1011.9 |
| 20260509074549 | 69 | 0 | 0.0 | 0.0 | 0.00 | 0.01 | 0.00 | 93 | 1011.8 |
| 20260509074038 | 69 | 0 | 0.0 | 0.0 | 0.00 | 0.01 | 0.00 | 93 | 1011.7 |
| 20260509073538 | 69 | 0 | 0.0 | 0.0 | 0.00 | 0.01 | 0.00 | 93 | 1011.7 |
| 20260509073056 | 69 | 0 | 0.0 | 0.0 | 0.00 | 0.01 | 0.00 | 93 | 1011.8 |
| 20260509072542 | 69 | 0 | 0.0 | 0.0 | 0.00 | 0.01 | 0.00 | 93 | 1012.0 |
| 20260509072039 | 69 | 0 | 0.0 | 0.0 | 0.00 | 0.01 | 0.00 | 92 | 1011.9 |
| 20260509071551 | 69 | 0 | 0.0 | 0.0 | 0.00 | 0.01 | 0.00 | 92 | 1011.8 |
| 20260509071038 | 69 | 0 | 0.0 | 0.0 | 0.00 | 0.01 | 0.00 | 92 | 1011.9 |
| 20260509070539 | 69 | 0 | 0.0 | 0.0 | 0.00 | 0.01 | 0.00 | 92 | 1011.7 |
| 20260509070054 | 69 | 0 | 0.0 | 0.0 | 0.00 | 0.01 | 0.00 | 92 | 1011.8 |
| 20260509065538 | 69 | 0 | 0.0 | 0.0 | 0.00 | 0.01 | 0.00 | 92 | 1011.6 |
| 20260509065043 | 69 | 0 | 0.0 | 0.0 | 0.00 | 0.01 | 0.00 | 92 | 1011.7 |
| 20260509064549 | 69 | 0 | 0.0 | 0.0 | 0.00 | 0.01 | 0.00 | 92 | 1011.6 |
| 20260509064039 | 69 | 0 | 0.0 | 0.0 | 0.00 | 0.01 | 0.00 | 92 | 1011.7 |
| 20260509063538 | 69 | 0 | 0.0 | 0.0 | 0.00 | 0.01 | 0.00 | 92 | 1011.7 |
| 20260509063101 | 69 | 0 | 0.0 | 0.0 | 0.00 | 0.01 | 0.00 | 92 | 1011.8 |
| 20260509062539 | 69 | 0 | 0.0 | 0.0 | 0.00 | 0.01 | 0.00 | 92 | 1011.9 |
| 20260509062039 | 69 | 0 | 0.0 | 0.0 | 0.00 | 0.01 | 0.00 | 92 | 1011.9 |
| 20260509061553 | 69 | 0 | 0.0 | 0.0 | 0.00 | 0.01 | 0.00 | 92 | 1012.2 |
| 20260509061035 | 69 | 0 | 0.0 | 0.0 | 0.00 | 0.01 | 0.00 | 92 | 1012.2 |
| 20260509060539 | 69 | 0 | 0.0 | 0.0 | 0.00 | 0.01 | 0.00 | 91 | 1012.0 |
| 20260509055539 | 69 | 0 | 0.0 | 0.0 | 0.00 | 0.01 | 0.00 | 91 | 1012.0 |
| 20260509055038 | 69 | 0 | 0.0 | 0.0 | 0.00 | 0.01 | 0.00 | 91 | 1012.0 |
| 20260509054546 | 69 | 0 | 0.0 | 0.0 | 0.00 | 0.01 | 0.00 | 91 | 1011.7 |
| 20260509054038 | 69 | 0 | 0.0 | 0.0 | 0.00 | 0.01 | 0.00 | 91 | 1011.4 |
| 20260509053538 | 69 | 0 | 0.0 | 0.0 | 0.00 | 0.01 | 0.00 | 90 | 1011.3 |
| 20260509053129 | 69 | 0 | 0.0 | 0.0 | 0.00 | 0.01 | 0.00 | 90 | 1011.4 |
| 20260509052538 | 70 | 0 | 0.0 | 0.0 | 0.00 | 0.01 | 0.00 | 90 | 1011.4 |
| 20260509052038 | 70 | 0 | 0.0 | 0.0 | 0.00 | 0.01 | 0.00 | 89 | 1011.6 |
| 20260509051552 | 70 | 0 | 0.0 | 0.0 | 0.00 | 0.01 | 0.00 | 89 | 1011.6 |
| 20260509051039 | 70 | 0 | 0.0 | 0.0 | 0.00 | 0.01 | 0.00 | 89 | 1011.3 |
| 20260509050541 | 70 | 0 | 0.0 | 0.0 | 0.00 | 0.01 | 0.00 | 89 | 1011.2 |
| 20260509050050 | 70 | 0 | 0.0 | 0.0 | 0.00 | 0.01 | 0.00 | 89 | 1011.2 |
| 20260509045538 | 71 | 0 | 0.0 | 0.0 | 0.00 | 0.01 | 0.01 | 89 | 1011.3 |
| 20260509045038 | 71 | 0 | 0.0 | 0.0 | 0.00 | 0.01 | 0.01 | 89 | 1011.4 |
| 20260509044546 | 71 | 0 | 0.0 | 0.0 | 0.00 | 0.01 | 0.01 | 88 | 1011.4 |
| 20260509044039 | 71 | 0 | 0.0 | 0.0 | 0.00 | 0.01 | 0.01 | 88 | 1011.4 |
| 20260509043539 | 71 | 0 | 0.0 | 0.0 | 0.00 | 0.01 | 0.01 | 88 | 1011.7 |
| 20260509043105 | 71 | 0 | 0.0 | 0.0 | 0.00 | 0.01 | 0.01 | 88 | 1012.0 |
| 20260509042537 | 71 | 0 | 0.0 | 0.0 | 0.00 | 0.01 | 0.01 | 88 | 1011.9 |
| 20260509042040 | 71 | 0 | 0.0 | 0.0 | 0.00 | 0.01 | 0.01 | 88 | 1011.6 |
| 20260509041601 | 71 | 0 | 0.0 | 0.0 | 0.00 | 0.01 | 0.01 | 88 | 1011.4 |
| 20260509041038 | 72 | 0 | 0.0 | 0.0 | 0.00 | 0.01 | 0.01 | 87 | 1011.6 |
| 20260509040538 | 72 | 0 | 0.0 | 0.0 | 0.00 | 0.01 | 0.01 | 87 | 1011.5 |
| 20260509040104 | 72 | 0 | 0.0 | 0.0 | 0.00 | 0.01 | 0.01 | 87 | 1011.5 |
| 20260509035538 | 72 | 0 | 0.0 | 0.0 | 0.00 | 0.01 | 0.01 | 87 | 1011.6 |
| 20260509035037 | 72 | 0 | 0.0 | 0.0 | 0.00 | 0.01 | 0.01 | 87 | 1011.5 |
| 20260509034603 | 72 | 0 | 0.0 | 0.0 | 0.00 | 0.01 | 0.01 | 87 | 1011.5 |
| 20260509034037 | 72 | 0 | 0.0 | 0.0 | 0.00 | 0.01 | 0.01 | 87 | 1011.6 |
| 20260509033538 | 72 | 0 | 0.0 | 0.0 | 0.00 | 0.01 | 0.01 | 87 | 1011.6 |
| 20260509033053 | 72 | 0 | 0.0 | 0.0 | 0.00 | 0.01 | 0.01 | 87 | 1011.5 |
| 20260509032539 | 72 | 0 | 0.0 | 0.0 | 0.00 | 0.01 | 0.01 | 87 | 1011.4 |
| 20260509032038 | 72 | 0 | 0.0 | 0.0 | 0.00 | 0.01 | 0.01 | 87 | 1011.2 |
| 20260509031602 | 72 | 0 | 0.0 | 0.0 | 0.00 | 0.01 | 0.01 | 87 | 1011.2 |
| 20260509031037 | 72 | 0 | 0.0 | 0.0 | 0.00 | 0.01 | 0.01 | 86 | 1011.3 |
| 20260509030537 | 72 | 0 | 0.0 | 0.0 | 0.00 | 0.01 | 0.01 | 86 | 1011.3 |
| 20260509030052 | 72 | 0 | 0.0 | 0.0 | 0.00 | 0.01 | 0.01 | 86 | 1011.1 |
| 20260509025536 | 72 | 0 | 0.0 | 0.0 | 0.00 | 0.01 | 0.01 | 86 | 1011.0 |
| 20260509025038 | 72 | 0 | 0.0 | 0.0 | 0.00 | 0.01 | 0.01 | 86 | 1010.7 |
| 20260509024550 | 72 | 0 | 0.0 | 0.0 | 0.00 | 0.01 | 0.01 | 86 | 1010.7 |
| 20260509024041 | 72 | 0 | 0.0 | 0.0 | 0.00 | 0.01 | 0.01 | 86 | 1010.6 |
| 20260509023543 | 72 | 0 | 0.0 | 0.0 | 0.00 | 0.01 | 0.01 | 85 | 1010.6 |
| 20260509023054 | 72 | 0 | 0.0 | 0.0 | 0.00 | 0.01 | 0.01 | 85 | 1010.8 |
| 20260509022540 | 72 | 0 | 0.0 | 0.0 | 0.00 | 0.01 | 0.01 | 85 | 1010.8 |
| 20260509022039 | 72 | 0 | 0.0 | 0.0 | 0.00 | 0.01 | 0.01 | 85 | 1010.8 |
| 20260509021552 | 72 | 0 | 0.0 | 0.0 | 0.00 | 0.01 | 0.01 | 84 | 1010.7 |
| 20260509021044 | 72 | 0 | 0.0 | 0.0 | 0.00 | 0.01 | 0.01 | 84 | 1010.6 |
| 20260509020542 | 72 | 0 | 0.0 | 0.0 | 0.00 | 0.01 | 0.01 | 84 | 1010.6 |
| 20260509020056 | 72 | 0 | 0.0 | 0.0 | 0.00 | 0.01 | 0.01 | 84 | 1010.7 |
| 20260509015537 | 72 | 0 | 0.0 | 0.0 | 0.00 | 0.01 | 0.01 | 84 | 1010.5 |
| 20260509015042 | 72 | 0 | 0.0 | 0.0 | 0.00 | 0.01 | 0.01 | 84 | 1010.4 |
| 20260509014559 | 72 | 0 | 0.0 | 0.0 | 0.00 | 0.01 | 0.01 | 84 | 1010.5 |
| 20260509014038 | 72 | 0 | 0.0 | 0.0 | 0.00 | 0.01 | 0.01 | 84 | 1010.4 |
| 20260509013538 | 72 | 0 | 0.0 | 0.0 | 0.00 | 0.01 | 0.01 | 83 | 1010.3 |
| 20260509013107 | 72 | 0 | 0.0 | 0.0 | 0.00 | 0.01 | 0.01 | 84 | 1010.4 |
| 20260509012538 | 72 | 0 | 0.0 | 0.0 | 0.00 | 0.01 | 0.01 | 83 | 1010.4 |
| 20260509012041 | 73 | 0 | 0.0 | 0.0 | 0.00 | 0.01 | 0.01 | 83 | 1010.3 |
| 20260509011551 | 73 | 0 | 0.0 | 0.0 | 0.00 | 0.01 | 0.01 | 83 | 1010.2 |
| 20260509011040 | 73 | 0 | 0.0 | 0.0 | 0.00 | 0.01 | 0.01 | 83 | 1010.1 |
| 20260509010543 | 73 | 0 | 0.0 | 0.0 | 0.00 | 0.01 | 0.01 | 82 | 1010.1 |
| 20260509010055 | 73 | 0 | 0.0 | 0.0 | 0.00 | 0.01 | 0.01 | 82 | 1009.9 |
| 20260509005541 | 73 | 0 | 0.0 | 0.0 | 0.00 | 0.01 | 0.01 | 82 | 1009.9 |
| 20260509005042 | 73 | 0 | 0.0 | 0.0 | 0.00 | 0.01 | 0.01 | 82 | 1009.8 |
| 20260509004552 | 73 | 0 | 0.0 | 0.0 | 0.00 | 0.01 | 0.01 | 81 | 1009.5 |
| 20260509004038 | 73 | 0 | 0.0 | 0.0 | 0.00 | 0.01 | 0.01 | 81 | 1009.3 |
| 20260509003541 | 74 | 0 | 0.0 | 0.0 | 0.00 | 0.01 | 0.01 | 81 | 1009.3 |
| 20260509003052 | 74 | 0 | 0.0 | 0.0 | 0.00 | 0.01 | 0.01 | 81 | 1009.4 |
| 20260509002544 | 74 | 0 | 0.0 | 1.0 | 0.00 | 0.01 | 0.01 | 81 | 1009.4 |
| 20260509002037 | 74 | 0 | 0.0 | 1.0 | 0.00 | 0.01 | 0.01 | 80 | 1009.6 |
| 20260509001552 | 74 | 0 | 0.0 | 1.0 | 0.00 | 0.01 | 0.01 | 80 | 1009.8 |
| 20260509001040 | 74 | 0 | 0.0 | 1.0 | 0.00 | 0.01 | 0.01 | 80 | 1009.9 |
| 20260509000538 | 74 | 0 | 0.0 | 1.0 | 0.00 | 0.01 | 0.01 | 80 | 1009.8 |
| 20260509000052 | 74 | 0 | 0.0 | 1.0 | 0.00 | 0.01 | 0.01 | 80 | 1009.8 |
| 20260508235538 | 74 | 0 | 0.0 | 1.0 | 0.00 | 0.01 | 0.01 | 80 | 1010.0 |
| 20260508235038 | 74 | 0 | 0.0 | 1.0 | 0.00 | 0.01 | 0.01 | 80 | 1009.9 |
| 20260508234552 | 74 | 0 | 0.0 | 1.0 | 0.00 | 0.01 | 0.01 | 80 | 1009.9 |
| 20260508234038 | 74 | 0 | 0.0 | 1.0 | 0.00 | 0.01 | 0.01 | 79 | 1010.0 |
| 20260508233542 | 74 | 157 | 0.0 | 1.0 | 0.00 | 0.01 | 0.01 | 80 | 1010.0 |
| 20260508233110 | 74 | 0 | 0.0 | 1.0 | 0.00 | 0.01 | 0.01 | 79 | 1009.8 |
| 20260508232540 | 74 | 203 | 0.0 | 1.0 | 0.00 | 0.01 | 0.01 | 79 | 1010.0 |
| 20260508232040 | 74 | 203 | 0.0 | 1.0 | 0.00 | 0.01 | 0.01 | 80 | 1009.9 |
| 20260508231551 | 74 | 0 | 0.0 | 1.0 | 0.00 | 0.01 | 0.01 | 80 | 1010.0 |
| 20260508231041 | 74 | 0 | 0.0 | 2.0 | 0.00 | 0.01 | 0.01 | 79 | 1009.9 |
| 20260508230538 | 74 | 0 | 0.0 | 2.0 | 0.00 | 0.01 | 0.01 | 79 | 1009.9 |
| 20260508230058 | 74 | 103 | 0.0 | 1.0 | 0.00 | 0.01 | 0.01 | 80 | 1010.0 |
| 20260508225540 | 74 | 0 | 0.0 | 2.0 | 0.00 | 0.01 | 0.01 | 80 | 1009.9 |
| 20260508225041 | 73 | 0 | 0.0 | 2.0 | 0.00 | 0.01 | 0.01 | 80 | 1009.9 |
| 20260508224550 | 73 | 122 | 0.0 | 1.0 | 0.00 | 0.01 | 0.01 | 80 | 1010.0 |
| 20260508224041 | 73 | 0 | 0.0 | 1.0 | 0.00 | 0.01 | 0.01 | 79 | 1010.1 |
| 20260508223540 | 73 | 0 | 0.0 | 1.0 | 0.00 | 0.01 | 0.01 | 79 | 1010.1 |
| 20260508223050 | 73 | 0 | 0.0 | 1.0 | 0.00 | 0.01 | 0.01 | 80 | 1010.1 |
| 20260508222538 | 73 | 0 | 0.0 | 2.0 | 0.00 | 0.01 | 0.01 | 80 | 1010.1 |
| 20260508222044 | 72 | 148 | 0.0 | 2.0 | 0.00 | 0.01 | 0.01 | 80 | 1010.2 |
| 20260508221552 | 72 | 94 | 0.0 | 1.0 | 0.00 | 0.01 | 0.01 | 80 | 1010.2 |
| 20260508221042 | 72 | 188 | 0.0 | 1.0 | 0.00 | 0.01 | 0.01 | 80 | 1010.2 |
| 20260508220542 | 72 | 217 | 0.0 | 1.0 | 0.00 | 0.01 | 0.01 | 81 | 1010.3 |
| 20260508220048 | 72 | 0 | 0.0 | 1.0 | 0.00 | 0.01 | 0.01 | 81 | 1010.3 |
| 20260508215540 | 71 | 0 | 0.0 | 1.0 | 0.01 | 0.01 | 0.01 | 82 | 1010.5 |
| 20260508215038 | 71 | 188 | 0.0 | 1.0 | 0.01 | 0.01 | 0.01 | 82 | 1010.4 |
| 20260508214551 | 71 | 278 | 0.0 | 2.0 | 0.01 | 0.01 | 0.01 | 82 | 1010.7 |
| 20260508214041 | 70 | 0 | 0.0 | 2.0 | 0.01 | 0.01 | 0.01 | 83 | 1010.8 |
| 20260508213537 | 70 | 0 | 0.0 | 1.0 | 0.01 | 0.01 | 0.01 | 82 | 1010.8 |
| 20260508213052 | 70 | 280 | 0.0 | 1.0 | 0.01 | 0.01 | 0.01 | 83 | 1011.0 |
| 20260508212540 | 70 | 0 | 0.0 | 2.0 | 0.01 | 0.01 | 0.01 | 87 | 1010.6 |
| 20260508212040 | 69 | 150 | 0.0 | 2.0 | 0.01 | 0.01 | 0.01 | 86 | 1010.1 |
| 20260508211552 | 69 | 198 | 0.0 | 4.0 | 0.01 | 0.01 | 0.01 | 84 | 1009.9 |
| 20260508211043 | 69 | 0 | 0.0 | 4.0 | 0.01 | 0.01 | 0.01 | 83 | 1009.8 |
| 20260508210544 | 70 | 110 | 1.0 | 3.0 | 0.01 | 0.01 | 0.01 | 81 | 1009.3 |
| 20260508210051 | 71 | 104 | 1.0 | 3.0 | 0.01 | 0.01 | 0.01 | 78 | 1010.3 |
| 20260508205538 | 71 | 110 | 0.0 | 1.0 | 0.00 | 0.00 | 0.00 | 75 | 1011.9 |
| 20260508205040 | 72 | 0 | 0.0 | 1.0 | 0.00 | 0.00 | 0.00 | 74 | 1012.4 |
| 20260508204548 | 72 | 193 | 0.0 | 1.0 | 0.00 | 0.00 | 0.00 | 73 | 1012.4 |
| 20260508204038 | 72 | 193 | 0.0 | 1.0 | 0.00 | 0.00 | 0.00 | 72 | 1012.6 |
| 20260508203538 | 73 | 0 | 0.0 | 1.0 | 0.00 | 0.00 | 0.00 | 71 | 1012.7 |
| 20260508203102 | 73 | 0 | 0.0 | 1.0 | 0.00 | 0.00 | 0.00 | 72 | 1012.4 |
| 20260508202539 | 73 | 195 | 0.0 | 1.0 | 0.00 | 0.00 | 0.00 | 72 | 1012.2 |
| 20260508202038 | 73 | 0 | 0.0 | 1.0 | 0.00 | 0.00 | 0.00 | 71 | 1012.5 |
| 20260508201556 | 73 | 0 | 0.0 | 2.0 | 0.00 | 0.00 | 0.00 | 71 | 1012.6 |
| 20260508201039 | 74 | 215 | 0.0 | 2.0 | 0.00 | 0.00 | 0.00 | 71 | 1012.6 |
| 20260508200538 | 74 | 206 | 0.0 | 1.0 | 0.00 | 0.00 | 0.00 | 70 | 1012.5 |
| 20260508200100 | 74 | 207 | 0.0 | 1.0 | 0.00 | 0.00 | 0.00 | 71 | 1012.4 |
| 20260508195539 | 74 | 192 | 0.0 | 2.0 | 0.00 | 0.00 | 0.00 | 71 | 1012.4 |
| 20260508195039 | 74 | 0 | 0.0 | 2.0 | 0.00 | 0.00 | 0.00 | 69 | 1012.4 |
| 20260508194556 | 74 | 0 | 0.0 | 2.0 | 0.00 | 0.00 | 0.00 | 69 | 1012.4 |
| 20260508194042 | 74 | 0 | 0.0 | 2.0 | 0.00 | 0.00 | 0.00 | 71 | 1012.3 |
| 20260508193540 | 74 | 210 | 0.0 | 2.0 | 0.00 | 0.00 | 0.00 | 71 | 1012.3 |
| 20260508193058 | 73 | 207 | 0.0 | 2.0 | 0.00 | 0.00 | 0.00 | 71 | 1012.4 |
| 20260508192540 | 73 | 143 | 0.0 | 2.0 | 0.00 | 0.00 | 0.00 | 71 | 1012.5 |
| 20260508192038 | 73 | 0 | 0.0 | 1.0 | 0.00 | 0.00 | 0.00 | 71 | 1012.7 |
| 20260508191600 | 73 | 0 | 0.0 | 2.0 | 0.00 | 0.00 | 0.00 | 71 | 1012.6 |
| 20260508191038 | 74 | 187 | 0.0 | 2.0 | 0.00 | 0.00 | 0.00 | 71 | 1012.8 |
| 20260508190540 | 74 | 162 | 0.0 | 2.0 | 0.00 | 0.00 | 0.00 | 71 | 1012.8 |
| 20260508190054 | 74 | 195 | 1.0 | 2.0 | 0.00 | 0.00 | 0.00 | 71 | 1012.9 |
| 20260508185540 | 74 | 0 | 0.0 | 2.0 | 0.00 | 0.00 | 0.00 | 70 | 1012.9 |
| 20260508185040 | 74 | 197 | 0.0 | 2.0 | 0.00 | 0.00 | 0.00 | 71 | 1013.0 |
| 20260508184555 | 74 | 0 | 0.0 | 2.0 | 0.00 | 0.00 | 0.00 | 71 | 1013.1 |
| 20260508184040 | 74 | 215 | 0.0 | 2.0 | 0.00 | 0.00 | 0.00 | 71 | 1013.2 |
| 20260508183540 | 74 | 0 | 0.0 | 2.0 | 0.00 | 0.00 | 0.00 | 71 | 1013.1 |
| 20260508183053 | 74 | 191 | 0.0 | 2.0 | 0.00 | 0.00 | 0.00 | 69 | 1013.3 |
| 20260508182539 | 74 | 167 | 0.0 | 2.0 | 0.00 | 0.00 | 0.00 | 69 | 1013.3 |
| 20260508182041 | 74 | 212 | 0.0 | 2.0 | 0.00 | 0.00 | 0.00 | 71 | 1013.4 |
| 20260508181558 | 74 | 0 | 0.0 | 2.0 | 0.00 | 0.00 | 0.00 | 69 | 1013.4 |
| 20260508181040 | 74 | 183 | 0.0 | 2.0 | 0.00 | 0.00 | 0.00 | 69 | 1013.5 |
| 20260508180540 | 74 | 198 | 0.0 | 1.0 | 0.00 | 0.00 | 0.00 | 70 | 1013.4 |
| 20260508180054 | 74 | 0 | 0.0 | 2.0 | 0.00 | 0.00 | 0.00 | 69 | 1013.5 |
| 20260508175542 | 74 | 0 | 0.0 | 2.0 | 0.00 | 0.00 | 0.00 | 69 | 1013.6 |
| 20260508175038 | 75 | 0 | 0.0 | 2.0 | 0.00 | 0.00 | 0.00 | 69 | 1013.9 |
| 20260508174557 | 75 | 205 | 0.0 | 2.0 | 0.00 | 0.00 | 0.00 | 68 | 1013.8 |
| 20260508174041 | 75 | 175 | 0.0 | 3.0 | 0.00 | 0.00 | 0.00 | 67 | 1013.8 |
| 20260508173540 | 75 | 167 | 1.0 | 3.0 | 0.00 | 0.00 | 0.00 | 67 | 1013.9 |
| 20260508173052 | 75 | 140 | 1.0 | 3.0 | 0.00 | 0.00 | 0.00 | 67 | 1013.9 |
| 20260508172538 | 75 | 78 | 0.0 | 4.0 | 0.00 | 0.00 | 0.00 | 68 | 1014.0 |
| 20260508172040 | 75 | 147 | 0.0 | 4.0 | 0.00 | 0.00 | 0.00 | 68 | 1014.2 |
| 20260508171605 | 74 | 63 | 0.0 | 2.0 | 0.00 | 0.00 | 0.00 | 70 | 1014.2 |
| 20260508171037 | 73 | 184 | 0.0 | 3.0 | 0.00 | 0.00 | 0.00 | 70 | 1014.3 |
| 20260508170545 | 73 | 0 | 1.0 | 3.0 | 0.00 | 0.00 | 0.00 | 69 | 1014.4 |
| 20260508170058 | 73 | 191 | 1.0 | 3.0 | 0.00 | 0.00 | 0.00 | 70 | 1014.3 |
| 20260508165539 | 72 | 158 | 0.0 | 3.0 | 0.00 | 0.00 | 0.00 | 71 | 1014.3 |
| 20260508165038 | 72 | 0 | 1.0 | 3.0 | 0.00 | 0.00 | 0.00 | 71 | 1014.5 |
| 20260508164550 | 71 | 120 | 0.0 | 2.0 | 0.00 | 0.00 | 0.00 | 73 | 1014.6 |
| 20260508164039 | 71 | 127 | 1.0 | 2.0 | 0.00 | 0.00 | 0.00 | 71 | 1014.9 |
| 20260508163539 | 71 | 158 | 0.0 | 1.0 | 0.00 | 0.00 | 0.00 | 71 | 1015.1 |
| 20260508163051 | 71 | 0 | 0.0 | 1.0 | 0.00 | 0.00 | 0.00 | 73 | 1015.2 |
| 20260508162539 | 70 | 0 | 0.0 | 1.0 | 0.00 | 0.00 | 0.00 | 72 | 1015.3 |
| 20260508162038 | 71 | 0 | 0.0 | 1.0 | 0.00 | 0.00 | 0.00 | 73 | 1015.4 |
| 20260508161552 | 70 | 98 | 0.0 | 2.0 | 0.00 | 0.00 | 0.00 | 73 | 1015.3 |
| 20260508161038 | 70 | 0 | 0.0 | 2.0 | 0.00 | 0.00 | 0.00 | 73 | 1015.4 |
| 20260508160538 | 69 | 201 | 0.0 | 2.0 | 0.00 | 0.00 | 0.00 | 74 | 1015.4 |
| 20260508160056 | 69 | 0 | 0.0 | 1.0 | 0.00 | 0.00 | 0.00 | 75 | 1015.5 |
| 20260508155542 | 69 | 0 | 0.0 | 1.0 | 0.00 | 0.00 | 0.00 | 75 | 1015.5 |
| 20260508155039 | 69 | 185 | 0.0 | 1.0 | 0.00 | 0.00 | 0.00 | 75 | 1015.7 |
| 20260508154552 | 69 | 0 | 0.0 | 1.0 | 0.00 | 0.00 | 0.00 | 74 | 1015.6 |
| 20260508154039 | 69 | 0 | 0.0 | 1.0 | 0.00 | 0.00 | 0.00 | 74 | 1015.7 |
| 20260508153540 | 69 | 0 | 0.0 | 0.0 | 0.00 | 0.00 | 0.00 | 74 | 1015.7 |
| 20260508153051 | 69 | 0 | 0.0 | 0.0 | 0.00 | 0.00 | 0.00 | 74 | 1015.7 |
| 20260508152541 | 69 | 0 | 0.0 | 0.0 | 0.00 | 0.00 | 0.00 | 74 | 1015.8 |
| 20260508152038 | 69 | 0 | 0.0 | 1.0 | 0.00 | 0.00 | 0.00 | 75 | 1016.0 |
| 20260508151555 | 69 | 0 | 0.0 | 1.0 | 0.00 | 0.00 | 0.00 | 75 | 1015.9 |
| 20260508151039 | 68 | 0 | 0.0 | 1.0 | 0.00 | 0.00 | 0.00 | 74 | 1016.0 |
| 20260508150539 | 68 | 210 | 0.0 | 2.0 | 0.00 | 0.00 | 0.00 | 75 | 1015.9 |
| 20260508150050 | 68 | 0 | 0.0 | 2.0 | 0.00 | 0.00 | 0.00 | 74 | 1015.9 |
| 20260508145544 | 68 | 105 | 0.0 | 2.0 | 0.00 | 0.00 | 0.00 | 74 | 1015.9 |
| 20260508145039 | 68 | 0 | 0.0 | 2.0 | 0.00 | 0.00 | 0.00 | 74 | 1015.9 |
| 20260508144550 | 68 | 204 | 0.0 | 2.0 | 0.00 | 0.00 | 0.00 | 73 | 1016.0 |
| 20260508144039 | 68 | 203 | 0.0 | 4.0 | 0.00 | 0.00 | 0.00 | 73 | 1016.0 |
| 20260508143540 | 67 | 0 | 1.0 | 4.0 | 0.00 | 0.00 | 0.00 | 74 | 1016.0 |
| 20260508143103 | 67 | 0 | 1.0 | 4.0 | 0.00 | 0.00 | 0.00 | 73 | 1015.9 |
| 20260508142540 | 68 | 193 | 0.0 | 4.0 | 0.00 | 0.00 | 0.00 | 74 | 1016.1 |
| 20260508142040 | 67 | 0 | 1.0 | 4.0 | 0.00 | 0.00 | 0.00 | 74 | 1016.0 |
| 20260508141553 | 67 | 190 | 0.0 | 4.0 | 0.00 | 0.00 | 0.00 | 75 | 1015.9 |
| 20260508141039 | 67 | 56 | 1.0 | 3.0 | 0.00 | 0.00 | 0.00 | 75 | 1016.1 |
| 20260508140539 | 66 | 106 | 0.0 | 5.0 | 0.00 | 0.00 | 0.00 | 76 | 1016.2 |
| 20260508140059 | 66 | 0 | 1.0 | 5.0 | 0.00 | 0.00 | 0.00 | 75 | 1016.1 |
| 20260508135536 | 67 | 89 | 1.0 | 5.0 | 0.00 | 0.00 | 0.00 | 75 | 1016.2 |
| 20260508135039 | 67 | 77 | 0.0 | 4.0 | 0.00 | 0.00 | 0.00 | 74 | 1016.1 |
| 20260508134555 | 67 | 49 | 0.0 | 2.0 | 0.00 | 0.00 | 0.00 | 75 | 1016.1 |
| 20260508134038 | 67 | 117 | 0.0 | 2.0 | 0.00 | 0.00 | 0.00 | 76 | 1016.3 |
| 20260508133543 | 68 | 119 | 0.0 | 2.0 | 0.00 | 0.00 | 0.00 | 74 | 1016.3 |
| 20260508133048 | 68 | 109 | 0.0 | 1.0 | 0.00 | 0.00 | 0.00 | 73 | 1016.3 |
| 20260508132540 | 68 | 117 | 0.0 | 1.0 | 0.00 | 0.00 | 0.00 | 74 | 1016.3 |
| 20260508132036 | 68 | 104 | 0.0 | 1.0 | 0.00 | 0.00 | 0.00 | 75 | 1016.3 |
| 20260508131603 | 67 | 122 | 0.0 | 3.0 | 0.00 | 0.00 | 0.00 | 75 | 1016.4 |
| 20260508131039 | 67 | 0 | 0.0 | 3.0 | 0.00 | 0.00 | 0.00 | 76 | 1016.1 |
| 20260508130540 | 68 | 96 | 0.0 | 2.0 | 0.00 | 0.00 | 0.00 | 76 | 1016.0 |
| 20260508130111 | 67 | 0 | 0.0 | 1.0 | 0.00 | 0.00 | 0.00 | 81 | 1016.1 |
| 20260508125540 | 65 | 0 | 0.0 | 1.0 | 0.00 | 0.00 | 0.00 | 81 | 1016.0 |
| 20260508125040 | 64 | 0 | 0.0 | 1.0 | 0.00 | 0.00 | 0.00 | 84 | 1016.1 |
| 20260508124552 | 63 | 130 | 0.0 | 1.0 | 0.00 | 0.00 | 0.00 | 84 | 1016.0 |